Location: Cocotero
(9.9538°N, 67.6471°W)
Time: 19:51:50
(UTC+00:00)

Daily predictions for brighter satellites

Satellite Brightness Start Highest point End
(mag) Time Altitude Azimuth Time Altitude Azimuth Time Altitude Azimuth
Cosmos 2233 Rocket 4.2 22:41:56 10° SSE 22:47:48 49° E 22:53:40 10° NNE
Cosmos 292 Rocket 4.1 22:45:35 10° N 22:50:03 43° ENE 22:54:33 10° SSE
Cosmos 1842 Rocket 3.5 22:49:20 10° N 22:53:38 89° E 22:57:56 10° S
CZ-3C R/B 3.5 14:31:46 10° W 22:54:24 29° S 22:59:12 10° ESE
NOSS 0 Rocket 4.2 22:50:25 10° S 22:56:22 49° ESE 23:02:19 10° NNE
CZ-2C R/B 2.7 22:53:21 10° SSE 22:56:49 48° ENE 23:00:13 10° N
Cosmos 2292 Rocket 4.3 22:55:50 10° NE 22:57:36 15° E 22:59:19 10° ESE
Cosmos 2061 Rocket 4.0 22:54:03 10° S 23:00:22 74° E 23:06:45 10° N
Cosmos 1844 4.1 22:57:22 10° N 23:02:32 40° ENE 23:07:44 10° SE
Meteor 1-31 Rocket 2.7 23:04:29 10° S 23:08:10 82° WSW 23:11:50 10° NNW
Cosmos 990 Rocket 3.9 23:03:26 10° N 23:08:35 80° ENE 23:13:43 10° SSE
Meteor 1-27 Rocket 3.7 23:06:50 10° N 23:12:28 78° E 23:18:14 10° S
Intelsat 5-1 Rocket 2.7 23:11:58 10° WNW 23:14:12 29° NNW 23:17:32 10° NE
Iridium 4 Rocket 4.3 23:11:20 10° NE 23:14:20 19° E 23:17:26 10° SE
GPS 2-12 Rocket1 3.4 23:10:34 10° SW 23:14:44 45° SSE 23:17:46 17° E
USA 234 3.3 23:08:42 10° SE 23:15:14 86° NE 23:21:48 10° NW
SL-08 R/B 3.3 23:10:23 10° NNE 23:15:18 82° ESE 23:20:09 10° S
Cosmos 2237 Rocket 2.5 23:11:03 10° S 23:16:19 41° ESE 23:21:34 10° NE
Cosmos 1743 2.6 23:12:44 10° S 23:16:20 78° W 23:19:53 10° N
GOES 2 Rocket 4.4 23:12:01 10° WNW 23:16:49 47° SSW 23:23:02 10° SE
ARIANE 5 R/B 4.3 23:14:58 10° WSW 23:17:35 12° SSW 23:19:16 10° S
Hubble Space Telescope 1.3 23:16:16 10° NW 23:20:01 42° NNE 23:22:18 20° E
Cosmos 1766 Rocket 3.6 23:18:58 10° S 23:23:08 50° E 23:27:18 10° NNE
SWIFT 3.9 23:23:24 10° SSW 23:26:00 17° SSE 23:26:56 16° SE
ADEOS 4.5 23:26:02 18° ESE 23:28:36 26° ENE 23:32:52 10° NNE
ATLAS CENTAUR R/B 0.7 23:25:56 10° SSW 23:29:18 87° ESE 23:32:43 10° NNE
YAOGAN 1 2.4 23:25:18 10° SSE 23:29:33 67° ENE 23:33:46 10° N
Tsikada Rocket 4.0 23:33:19 10° N 23:39:34 62° E 23:45:52 10° SSE
Cosmos 2208 Rocket 4.5 23:39:05 10° SSE 23:43:46 35° E 23:45:35 27° ENE
SPOT 1/Viking Rocket 4.0 23:42:17 27° ESE 23:44:25 39° ENE 23:49:13 10° N
ASTRO E2 2.0 23:41:24 10° SW 23:44:39 68° SSE 23:44:49 66° SE
Cosmos 1980 3.7 23:39:48 10° SSW 23:45:27 85° WNW 23:51:08 10° NNE
CZ-4B R/B 3.4 23:53:08 45° ESE 23:53:58 51° ENE 23:58:32 10° N
Tiangong -0.8 23:53:22 10° SW 23:55:13 32° SSW 23:55:13 32° SSW
